Temp
5 5 4 4 4 4 3 2 2 2 2 2 3 2 2 2 2 1 1 1 1 1 1 1 1 1 1 1 1 1 2 3
5 4 4 4 4 3 2 1 1 1 2 2 2 2 2 1 1 0 0 -0 0 -0 -0 -0 -0 -0 -0 0 0 1 1 2
4 4 4 3 3 2 1 1 0 1 1 1 1 1 0 0 -0 -1 -1 -0 -1 -1 -1 -1 -1 -1 -1 -1 -0 -0 0 1
3 3 2 2 1 1 0 0 0 0 0 0 -0 -0 -0 -1 -1 -1 -1 -1 -1 -1 -2 -2 -2 -1 -1 -1 -1 -1 -1 -0
3 3 1 0 0 -0 -0 -1 -1 -1 -0 -1 -1 -0 -1 -1 -1 -1 -1 -2 -2 -2 -2 -2 -2 -2 -2 -2 -2 -2 -2 -1
2 1 -0 -1 -1 -1 -1 -2 -1 -1 -1 -1 -1 -1 -1 -1 -2 -2 -2 -2 -3 -3 -3 -3 -3 -3 -3 -3 -3 -3 -3 -2
2 1 -1 -2 -2 -2 -2 -2 -2 -2 -3 -1 -2 -2 -2 -2 -2 -2 -3 -3 -3 -3 -3 -3 -3 -3 -3 -3 -3 -3 -3 -4
2 0 -1 -2 -3 -2 -2 -2 -2 -2 -2 -2 -2 -3 -3 -3 -3 -3 -4 -4 -4 -4 -4 -4 -4 -4 -4 -4 -4 -4 -4 -4
1 0 -0 -1 -2 -2 -2 -2 -2 -2 -2 -3 -3 -3 -3 -4 -4 -5 -5 -5 -5 -4 -4 -4 -5 -5 -5 -5 -5 -4 -4 -4
0 -1 -1 -2 -2 -2 -2 -2 -3 -3 -3 -3 -4 -4 -5 -5 -5 -5 -5 -5 -5 -5 -5 -5 -5 -5 -5 -5 -5 -5 -5 -5
-0 -1 -1 -2 -2 -2 -2 -3 -3 -3 -4 -4 -5 -5 -5 -5 -5 -6 -6 -5 -5 -6 -6 -6 -6 -6 -6 -6 -6 -6 -5 -5
-1 -1 -1 -2 -2 -2 -2 -3 -3 -4 -4 -5 -5 -5 -5 -6 -6 -6 -6 -6 -6 -6 -6 -6 -6 -6 -6 -6 -6 -6 -6 -6
-1 -1 -1 -2 -2 -2 -3 -3 -3 -4 -5 -5 -5 -6 -6 -6 -6 -6 -6 -6 -6 -6 -7 -7 -7 -7 -7 -7 -7 -7 -7 -7
-2 -2 -2 -2 -2 -3 -3 -3 -4 -4 -5 -6 -6 -6 -7 -7 -7 -7 -6 -6 -7 -7 -7 -7 -7 -7 -7 -8 -8 -7 -7 -7
-2 -2 -2 -2 -3 -3 -3 -4 -4 -5 -6 -7 -7 -7 -7 -7 -7 -7 -7 -7 -7 -7 -7 -8 -8 -8 -8 -8 -8 -8 -8 -8
-3 -3 -3 -3 -3 -3 -3 -4 -5 -6 -6 -7 -7 -7 -8 -7 -7 -7 -7 -7 -8 -8 -8 -8 -8 -8 -8 -8 -8 -8 -8 -8
-3 -3 -3 -3 -3 -4 -4 -5 -5 -6 -6 -7 -7 -8 -8 -8 -8 -8 -8 -8 -8 -8 -8 -9 -9 -9 -9 -9 -9 -9 -9 -9
-3 -3 -3 -3 -3 -4 -5 -5 -6 -6 -6 -7 -7 -8 -8 -8 -8 -8 -8 -8 -8 -9 -9 -9 -9 -9 -9 -9 -9 -9 -9 -9
-3 -3 -3 -3 -3 -4 -5 -7 -7 -6 -7 -7 -8 -8 -8 -8 -8 -8 -9 -9 -9 -9 -9 -10 -10 -10 -10 -10 -10 -10 -10 -10
Height
3106 3107 3108 3109 3109 3110 3110 3109 3110 3110 3109 3109 3108 3108 3107 3105 3104 3101 3099 3097 3095 3093 3091 3087 3084 3081 3077 3074 3070 3064 3059 3056
3102 3103 3104 3104 3105 3105 3105 3105 3105 3106 3105 3104 3103 3102 3101 3099 3097 3095 3094 3092 3090 3088 3085 3082 3078 3075 3071 3068 3065 3059 3053 3048
3097 3098 3098 3099 3100 3100 3100 3100 3100 3100 3100 3100 3099 3097 3096 3095 3093 3092 3090 3088 3086 3083 3080 3076 3073 3070 3067 3063 3059 3055 3048 3041
3090 3091 3092 3093 3094 3095 3096 3096 3096 3096 3095 3095 3094 3092 3091 3090 3089 3088 3085 3083 3080 3077 3075 3071 3068 3064 3061 3057 3053 3048 3044 3036
3081 3082 3083 3086 3089 3091 3091 3092 3091 3090 3090 3089 3088 3088 3087 3086 3084 3082 3081 3078 3075 3073 3070 3067 3063 3059 3056 3052 3048 3044 3039 3034
3075 3076 3078 3081 3085 3087 3087 3086 3087 3085 3084 3084 3084 3084 3082 3081 3079 3079 3076 3075 3071 3067 3064 3061 3058 3055 3052 3048 3044 3041 3036 3031
3070 3070 3071 3075 3079 3082 3083 3082 3082 3080 3081 3081 3079 3079 3079 3078 3076 3074 3070 3068 3065 3062 3059 3057 3054 3051 3048 3044 3041 3038 3033 3028
3065 3066 3068 3070 3073 3076 3077 3077 3076 3077 3076 3076 3075 3075 3075 3073 3071 3069 3064 3063 3060 3057 3055 3053 3050 3048 3044 3041 3038 3034 3031 3027
3063 3064 3065 3067 3068 3071 3073 3073 3073 3072 3072 3071 3070 3071 3070 3069 3066 3063 3060 3058 3056 3054 3051 3049 3047 3045 3041 3039 3035 3032 3029 3025
3060 3061 3061 3064 3066 3067 3067 3069 3068 3068 3067 3066 3066 3066 3064 3063 3060 3058 3056 3054 3052 3050 3048 3047 3044 3041 3038 3036 3033 3029 3026 3022
3058 3058 3059 3060 3061 3062 3063 3064 3064 3063 3062 3062 3061 3060 3058 3056 3055 3054 3052 3051 3050 3047 3045 3043 3040 3037 3035 3032 3030 3027 3024 3020
3055 3055 3056 3056 3057 3058 3058 3058 3058 3058 3057 3056 3055 3053 3053 3052 3051 3050 3049 3048 3046 3043 3041 3039 3037 3034 3032 3030 3027 3025 3022 3019
3050 3050 3051 3051 3052 3053 3053 3053 3053 3053 3052 3051 3050 3049 3049 3048 3048 3047 3046 3044 3042 3040 3038 3036 3034 3032 3030 3028 3027 3024 3021 3018
3044 3044 3045 3045 3046 3046 3047 3047 3047 3048 3047 3046 3045 3044 3044 3044 3044 3043 3042 3040 3038 3037 3036 3034 3033 3031 3029 3028 3026 3023 3021 3018
3036 3036 3037 3037 3038 3039 3040 3041 3041 3041 3041 3041 3040 3040 3040 3040 3040 3039 3038 3037 3036 3035 3034 3033 3031 3030 3029 3027 3025 3022 3020 3018
3026 3027 3029 3028 3029 3030 3032 3033 3034 3034 3036 3035 3035 3035 3035 3036 3036 3036 3035 3034 3034 3033 3032 3031 3030 3028 3027 3025 3023 3021 3019 3017
3016 3018 3019 3020 3021 3022 3024 3026 3026 3028 3029 3029 3030 3030 3031 3032 3032 3032 3032 3032 3031 3030 3030 3029 3027 3026 3025 3023 3022 3020 3018 3016
3010 3011 3012 3013 3014 3015 3017 3019 3021 3022 3022 3023 3024 3026 3027 3028 3029 3029 3029 3029 3029 3028 3028 3027 3026 3024 3023 3022 3020 3018 3016 3014
3004 3005 3006 3007 3008 3008 3010 3012 3014 3015 3017 3018 3020 3022 3024 3025 3025 3026 3026 3026 3026 3026 3025 3024 3023 3022 3021 3019 3018 3016 3014 3011
Wind_Speed
22 22 22 22 22 22 21 17 13 13 13 14 16 17 19 20 22 22 22 23 24 25 25 25 26 29 30 31 33 36 38 38
24 24 25 25 24 23 21 16 13 11 11 13 14 17 20 21 22 21 22 22 21 22 24 25 26 27 28 29 30 32 35 37
24 25 26 27 26 24 20 16 12 13 14 15 18 20 21 22 21 19 19 21 22 23 24 24 25 27 28 29 29 30 33 34
25 27 27 27 26 24 18 15 14 13 14 18 22 22 23 23 19 19 21 23 24 25 26 25 25 25 27 28 29 30 31 35
24 26 29 29 27 20 17 16 14 15 17 24 27 30 25 20 19 22 24 25 26 26 25 25 24 24 25 25 27 28 29 30
21 23 26 28 24 20 17 13 15 19 22 22 23 25 19 18 20 23 24 28 26 24 24 25 24 24 23 23 24 25 26 28
13 18 22 22 19 15 14 14 16 21 18 20 18 17 19 20 22 24 27 26 24 24 24 23 23 23 22 22 22 22 24 26
7 8 10 12 11 12 11 16 13 16 18 17 17 18 20 23 24 26 25 24 24 23 22 21 21 20 19 18 18 18 20 23
1 1 3 9 9 12 14 14 14 14 14 15 16 19 21 23 24 24 22 22 21 20 19 18 18 16 16 16 16 16 16 19
6 4 4 7 11 14 12 14 15 15 13 13 16 18 19 21 21 22 21 19 17 16 15 15 15 15 15 14 15 15 15 16
8 8 9 10 12 11 13 15 16 15 15 15 16 17 20 21 21 18 17 16 14 13 13 14 14 14 14 14 14 14 15 15
12 13 13 13 14 14 16 18 20 20 18 18 18 20 20 18 15 16 15 13 12 12 13 13 13 12 12 12 13 13 13 13
18 18 19 20 21 21 21 20 21 21 20 22 21 20 16 14 15 13 12 10 10 11 11 11 10 10 11 11 11 11 11 12
23 22 23 25 27 26 23 24 22 21 22 22 20 16 13 14 13 11 10 9 9 9 9 9 8 8 8 9 9 9 10 12
24 26 30 31 32 30 26 27 24 20 21 20 19 14 13 12 11 9 7 7 7 7 6 6 6 6 7 8 8 9 11 13
36 36 37 34 34 33 29 28 27 19 19 22 15 13 13 11 9 7 6 8 7 6 5 5 5 6 7 8 9 10 12 13
31 29 29 30 28 26 27 27 20 21 21 20 16 13 11 10 8 7 7 6 6 5 4 4 4 4 6 7 9 11 13 15
20 22 23 23 20 20 22 22 24 22 22 16 16 12 11 9 8 8 7 7 7 5 4 3 4 5 6 8 10 12 14 17
22 19 19 20 21 23 24 25 23 20 18 17 14 13 11 10 9 9 9 8 8 6 5 4 5 6 8 10 12 14 16 18
Wind_Direction
252 254 254 255 257 262 271 279 285 289 295 294 293 297 301 303 303 304 304 305 306 307 308 311 313 312 312 311 310 308 304 301
259 262 261 262 265 269 273 280 284 291 296 295 301 306 305 306 307 305 303 305 306 308 310 312 313 313 313 314 315 314 310 307
256 260 263 262 263 267 270 274 273 280 287 304 310 311 310 309 304 304 306 309 311 313 312 313 314 315 316 318 318 321 321 317
252 252 258 262 262 262 265 264 267 281 294 315 318 316 311 308 305 307 313 315 314 314 312 314 315 315 316 318 321 325 331 331
256 252 254 257 255 258 265 262 274 287 297 311 310 304 300 301 302 310 310 309 310 309 312 316 318 320 322 323 324 328 334 337
260 253 253 253 256 264 259 276 285 297 307 299 293 293 295 296 299 304 304 308 309 310 314 315 317 319 319 322 325 327 336 342
275 252 248 246 250 251 263 297 298 301 301 296 294 292 295 297 300 300 305 308 307 309 311 315 316 317 320 320 321 327 337 346
279 239 217 221 219 243 261 281 296 295 298 298 295 296 296 297 299 299 306 305 308 310 313 316 316 316 318 322 323 329 334 342
347 148 203 191 217 257 272 273 291 292 303 294 292 292 291 293 294 301 303 304 305 306 309 314 315 319 324 326 329 333 336 342
296 285 221 228 251 265 266 275 292 295 293 283 284 287 291 296 304 305 302 303 305 308 314 318 322 326 329 331 334 338 340 345
270 248 244 243 251 264 277 281 283 294 296 288 289 295 304 307 303 298 298 301 305 312 319 324 328 330 334 338 343 348 347 351
231 237 248 256 255 271 280 288 295 295 299 297 297 303 302 297 293 293 294 300 309 320 326 327 331 334 340 345 353 355 357 6
235 237 244 250 253 259 269 280 283 289 294 292 292 296 290 286 286 288 294 303 318 323 327 330 337 343 348 355 359 4 14 22
248 246 250 258 261 263 270 277 279 283 285 289 285 282 277 279 283 285 295 312 320 324 327 332 342 353 0 5 6 12 24 27
252 251 254 262 266 268 267 273 276 274 280 278 279 272 271 276 277 284 296 312 317 315 319 332 346 0 7 8 10 17 23 23
253 255 267 267 268 264 262 268 271 272 271 272 270 260 265 265 271 273 291 303 299 308 319 326 343 359 9 9 12 14 16 13
256 258 262 265 266 254 256 262 255 268 259 259 256 252 254 257 258 267 284 281 287 293 301 315 339 356 360 1 2 1 357 356
248 254 252 254 252 250 248 250 256 255 255 245 242 242 245 248 251 262 265 273 273 273 280 294 318 336 346 348 348 348 348 347
254 256 256 257 255 250 243 244 249 255 243 236 233 235 239 241 247 254 260 263 263 265 269 283 305 322 329 334 337 339 341 341